Bellingham, WA

1:38 PM PST on January 19, 2018 (GMT -0800)
Bellingham International

Weather History for KBLI - April, 2013

Change the Weather History Date:

Tuesday, April 16, 2013

  Actual Average Record
Temperature  
Mean Temperature 47 °F 48 °F  
Max Temperature 60 °F 57 °F 78 °F (1990)
Min Temperature 33 °F 40 °F 31 °F (1971)
Degree Days  
Heating Degree Days 18 17  
Month to date heating degree days 267 281  
Cooling Degree Days 0 0  
Month to date cooling degree days 0 0  
Year to date cooling degree days 0 0  
Moisture  
Dew Point 33 °F    
Average Humidity 65    
Maximum Humidity 100    
Minimum Humidity 29    
Precipitation  
Precipitation 0.00 in 0.09 in 0.79 in (1992)
Month to date precipitation 2.52 1.54  
Year to date precipitation 9.00 12.45  
Sea Level Pressure  
Sea Level Pressure 30.33 in    
Wind  
Wind Speed 4 mph (NNW)    
Max Wind Speed 15 mph    
Max Gust Speed 21 mph    
Visibility 10 miles    
Events      
T = Trace of Precipitation, MM = Missing Value Source: NWS Daily Summary

Daily Weather History Graph

Daily Weather History Graph

Search for Another Location

Airport or City:

Trip Planner

Search our weather history database for the weather conditions in past years. The results will help you decide how hot, cold, wet, or windy it might be!

Date:

Astronomy

Apr. 16, 2013 Rise Set
Actual Time 6:16 AM PDT 8:03 PM PDT
Civil Twilight 5:43 AM PDT 8:37 PM PDT
Nautical Twilight 5:02 AM PDT 9:18 PM PDT
Astronomical Twilight 4:17 AM PDT 10:04 PM PDT
Moon 10:27 AM PDT (4/16) 1:18 AM PDT (4/16)
Length of Visible Light 14h 54m
Length of Day
13h 47m
Waxing Crescent, 34% of the Moon is Illuminated
Apr 16
Waxing Crescent
Apr 18
First Quarter
Apr 25
Full
May 2
Last Quarter
May 9
New

Hourly Weather History & Observations

Time (PDT) Temp. Windchill Dew Point Humidity Pressure Visibility Wind Dir Wind Speed Gust Speed Precip Events Conditions
12:53 AM 41.0 °F 37.1 °F 35.1 °F 79% 30.22 in 10.0 mi North 5.8 mph - N/A   Clear
1:53 AM 39.0 °F - 36.0 °F 89% 30.23 in 10.0 mi Calm Calm - N/A   Clear
2:53 AM 39.0 °F - 36.0 °F 89% 30.24 in 10.0 mi Calm Calm - N/A   Clear
3:53 AM 36.0 °F - 34.0 °F 93% 30.26 in 10.0 mi Calm Calm - N/A   Clear
4:53 AM 33.8 °F - 33.8 °F 100% 30.25 in 9.0 mi Calm Calm - N/A   Clear
5:53 AM 34.0 °F - 32.0 °F 92% 30.30 in 8.0 mi Calm Calm - N/A   Clear
6:53 AM 34.0 °F - 33.1 °F 96% 30.32 in 8.0 mi Calm Calm - N/A   Clear
7:53 AM 39.9 °F - 37.0 °F 89% 30.33 in 10.0 mi Calm Calm - N/A   Clear
8:53 AM 46.0 °F 44.8 °F 36.0 °F 68% 30.35 in 10.0 mi Variable 3.5 mph - N/A   Clear
9:53 AM 51.1 °F - 36.0 °F 56% 30.35 in 10.0 mi North 9.2 mph - N/A   Clear
10:53 AM 54.0 °F - 34.0 °F 47% 30.35 in 10.0 mi NNE 9.2 mph 16.1 mph N/A   Clear
11:53 AM 55.9 °F - 32.0 °F 40% 30.35 in 10.0 mi North 9.2 mph - N/A   Clear
12:53 PM 57.9 °F - 32.0 °F 37% 30.34 in 10.0 mi NNW 10.4 mph - N/A   Clear
1:53 PM 57.9 °F - 33.1 °F 39% 30.34 in 10.0 mi NNW 11.5 mph 17.3 mph N/A   Scattered Clouds
2:53 PM 59.0 °F - 28.9 °F 32% 30.34 in 10.0 mi NNE 9.2 mph 20.7 mph N/A   Clear
3:53 PM 60.1 °F - 28.9 °F 31% 30.34 in 10.0 mi NNW 10.4 mph - N/A   Clear
4:53 PM 57.9 °F - 30.9 °F 36% 30.34 in 10.0 mi WNW 11.5 mph - N/A   Scattered Clouds
5:53 PM 57.9 °F - 30.0 °F 35% 30.35 in 10.0 mi WNW 11.5 mph - N/A   Scattered Clouds
6:53 PM 55.9 °F - 24.1 °F 29% 30.35 in 10.0 mi Variable 5.8 mph - N/A   Clear
7:53 PM 50.0 °F - 32.0 °F 50% 30.37 in 10.0 mi Calm Calm - N/A   Clear
8:53 PM 44.1 °F - 34.0 °F 68% 30.38 in 10.0 mi Calm Calm - N/A   Clear
9:53 PM 43.0 °F - 32.0 °F 65% 30.40 in 10.0 mi Calm Calm - N/A   Clear
10:53 PM 42.1 °F - 32.0 °F 67% 30.40 in 10.0 mi Calm Calm - N/A   Clear
11:53 PM 39.9 °F - 30.9 °F 70% 30.41 in 10.0 mi Calm Calm - N/A   Clear